Tracking 27405 objects as of 1-Jun-2023
HD Live streaming from Space Station
objects crossing your sky now

FENGYUN 1C DEB

Track FENGYUN 1C DEB now!
10-day predictions


NORAD ID: 30561
Int'l Code: 1999-025ALB
Perigee: 824.6 km
Apogee: 912.5 km
Inclination: 98.7 °
Period: 102.2 minutes
Semi major axis: 7239 km
RCS: 0.0205 m2 (small)
Launch date: May 10, 1999
Source: People's Republic of China (PRC)
Launch site: Taiyaun Space Center, China (TSC)

Note: This is SATELLITE DEBRIS
Your satellite tracking list
Your tracking list is empty




NASA's NSSDC Master Catalog

Two Line Element Set (TLE):
1 30561U 99025ALB 23151.79241740  .00000566  00000-0  34295-3 0  9999
2 30561  98.7413 169.7961 0060658 217.0949 318.3826 14.09405695839267
Source of the keplerian elements: AFSPC